Regional Weather Roundup
Issued by NWS

Home | Current Version | Previous Version | Text Only | Print | Product List | Glossary On
Versions: 1 2 3 4 5 6 7 8 9 10 11 12 13 14 15 16 17 18 19 20 21 22 23 24 25 26 27
000
ASUS45 KREV 241510
RWRNV
NEVADA REGIONAL WEATHER ROUNDUP
NATIONAL WEATHER SERVICE RENO NV
800 AM PDT FRI OCT 24 2014

NOTE: "FAIR" INDICATES FEW OR NO CLOUDS BELOW 12,000 FEET WITH NO
SIGNIFICANT WEATHER AND/OR OBSTRUCTIONS TO VISIBILITY.

NVZ001-003-004-241600-
WESTERN NEVADA

CITY           SKY/WX    TMP DP  RH WIND       PRES   REMARKS
RENO           CLEAR     39  30  70 CALM      30.10R
CARSON CITY    FAIR      36  23  60 CALM      30.10R
MINDEN         FAIR      32  19  59 CALM      30.11
FALLON         MOCLDY    38  26  62 CALM      30.09R
LOVELOCK       PTCLDY    31  22  69 E3        30.10R
HAWTHORNE      CLEAR     46  27  46 CALM      30.10R
$$

NVZ002-CAZ072-073-241600-
NORTHERN AND CENTRAL SIERRA

CITY           SKY/WX    TMP DP  RH WIND       PRES   REMARKS
S. LAKE TAHOE  CLEAR     33  22  63 CALM      30.14R
SQUAW VLY 8000 NOT AVBL
SUSANVILLE     CLEAR     36  34  93 SW6       30.08R
BLUE CANYON    CLEAR     52  28  39 SE8       30.13R
MAMMOTH LAKES  FAIR      41  18  38 CALM      30.24S
$$

NVZ030-031-036-241600-
NORTHERN NEVADA

CITY           SKY/WX    TMP DP  RH WIND       PRES   REMARKS
ELKO           PTCLDY    36  20  52 E6        30.18R
WINNEMUCCA     PTCLDY    34  27  75 CALM      30.11R
WENDOVER       SUNNY     43  30  61 CALM      30.18R
$$

NVZ035-037-241600-
CENTRAL NEVADA

CITY           SKY/WX    TMP DP  RH WIND       PRES   REMARKS
ELY            SUNNY     52  27  38 S10       30.26R
EUREKA           N/A     42  23  46 SW6       30.21R
$$

NVZ013-014-241600-
SOUTH CENTRAL NEVADA

CITY           SKY/WX    TMP DP  RH WIND       PRES   REMARKS
TONOPAH        PTCLDY    42  24  49 N10       30.22R
$$

NVZ017-020-022-241600-
SOUTHERN NEVADA

CITY           SKY/WX    TMP DP  RH WIND       PRES   REMARKS
LAS VEGAS      SUNNY     66  38  35 SW6       30.07R
N. LAS VEGAS   SUNNY     62  39  42 CALM      30.10R
NELLIS AFB     SUNNY     63  36  36 NW1       30.10R
HENDERSON      SUNNY     60  36  40 S7        30.13R
MERCURY        SUNNY     56  31  38 N6        30.13
$$



USA.gov is the U.S. government's official web portal to all federal, state and local government web resources and services.